This demonstration page uses our WeatherBlox Daily Observations layout. Learn more.

Left ArrowRight Arrow

34.16533, -84.80231

Hourly Observations for February 16, 2022

Temp ( °F °C ) Dew Point ( °F °C ) Humidity (%) Winds ( mph kmh ) Pressure ( in mb ) Visibility ( mi km ) Precip ( " mm )
12:15 am 00:15 Cloudy 48 9 28 -2 46 46 E 6 9 30.48 1032 10 16 0.00 0.00
12:35 am 00:35 Cloudy 48 9 28 -2 46 46 VRB 6 9 30.47 1032 10 16 0.00 0.00
12:55 am 00:55 Cloudy 48 9 28 -2 46 46 ESE 5 7 30.47 1032 10 16 0.00 0.00
1:15 am 01:15 Cloudy 46 8 28 -2 50 50 E 5 7 30.48 1032 10 16 0.00 0.00
1:35 am 01:35 Cloudy 46 8 28 -2 50 50 E 6 9 30.47 1032 10 16 0.00 0.00
1:55 am 01:55 Cloudy 46 8 28 -2 50 50 ESE 7 11 30.47 1032 10 16 0.00 0.00
2:15 am 02:15 Cloudy 46 8 28 -2 50 50 E 6 9 30.47 1032 10 16 0.00 0.00
2:35 am 02:35 Cloudy 46 8 28 -2 50 50 E 6 9 30.47 1032 10 16 0.00 0.00
2:55 am 02:55 Cloudy 45 7 28 -2 53 53 E 6 9 30.46 1031 10 16 0.00 0.00
3:15 am 03:15 Cloudy 45 7 28 -2 53 53 ESE 5 7 30.46 1031 10 16 0.00 0.00
3:35 am 03:35 Cloudy 45 7 28 -2 53 53 E 6 9 30.45 1031 10 16 0.00 0.00
3:55 am 03:55 Cloudy 45 7 30 -1 57 57 E 6 9 30.45 1031 10 16 0.00 0.00
4:15 am 04:15 Cloudy 45 7 30 -1 57 57 E 5 7 30.45 1031 10 16 0.00 0.00
4:35 am 04:35 Cloudy 46 8 30 -1 53 53 E 5 7 30.46 1031 10 16 0.00 0.00
4:55 am 04:55 Cloudy 46 8 32 0 57 57 E 5 7 30.46 1031 10 16 0.00 0.00
5:15 am 05:15 Cloudy 46 8 32 0 57 57 VRB 5 7 30.46 1031 10 16 0.00 0.00
5:35 am 05:35 Cloudy 46 8 34 1 62 62 E 6 9 30.47 1032 10 16 0.00 0.00
5:55 am 05:55 Cloudy 46 8 34 1 62 62 E 6 9 30.47 1032 10 16 0.00 0.00
6:15 am 06:15 Cloudy 46 8 34 1 62 62 VRB 5 7 30.47 1032 10 16 0.00 0.00
6:35 am 06:35 Cloudy 46 8 36 2 66 66 ESE 6 9 30.47 1032 10 16 0.00 0.00
6:55 am 06:55 Cloudy 46 8 36 2 66 66 VRB 5 7 30.49 1032 10 16 0.00 0.00
7:15 am 07:15 Cloudy 46 8 36 2 66 66 ESE 6 9 30.48 1032 10 16 0.00 0.00
7:35 am 07:35 Mostly Cloudy 46 8 36 2 66 66 VRB 3 6 30.49 1032 10 16 0.00 0.00
7:55 am 07:55 Mostly Cloudy 46 8 37 3 71 71 VRB 5 7 30.49 1032 10 16 0.00 0.00
8:15 am 08:15 Mostly Cloudy 46 8 37 3 71 71 ESE 6 9 30.49 1032 10 16 0.00 0.00
8:35 am 08:35 Mostly Cloudy 48 9 39 4 71 71 VRB 7 11 30.48 1032 10 16 0.00 0.00
8:55 am 08:55 Mostly Sunny 50 10 39 4 67 67 VRB 7 11 30.49 1032 10 16 0.00 0.00
9:15 am 09:15 Mostly Sunny 50 10 39 4 67 67 ESE 8 13 30.49 1032 10 16 0.00 0.00
9:35 am 09:35 Mostly Cloudy 50 10 41 5 71 71 E 8 13 30.49 1032 10 16 0.00 0.00
9:55 am 09:55 Mostly Cloudy 52 11 41 5 67 67 E 7 11 30.50 1033 10 16 0.00 0.00
10:15 am 10:15 Mostly Cloudy 54 12 43 6 67 67 E 9 15 30.48 1032 10 16 0.00 0.00
10:35 am 10:35 Partly Cloudy 55 13 43 6 63 63 ESE 9 15 30.48 1032 10 16 0.00 0.00
10:55 am 10:55 Mostly Sunny 57 14 45 7 63 63 VRB 7 11 30.48 1032 10 16 0.00 0.00
11:15 am 11:15 Partly Cloudy 57 14 43 6 59 59 E 7 11 30.47 1032 10 16 0.00 0.00
11:35 am 11:35 Mostly Cloudy 57 14 45 7 63 63 E 9 15 30.47 1032 10 16 0.00 0.00
11:55 am 11:55 Mostly Cloudy 61 16 45 7 55 55 VRB 7 11 30.44 1031 10 16 0.00 0.00
12:15 pm 12:15 Mostly Cloudy 61 16 46 8 59 59 ESE 6 9 30.43 1031 10 16 0.00 0.00
12:35 pm 12:35 Cloudy 64 18 48 9 56 56 SSE 13 20 30.41 1030 10 16 0.00 0.00
12:55 pm 12:55 Mostly Cloudy 64 18 48 9 56 56 VRB 7 11 30.40 1029 10 16 0.00 0.00
1:15 pm 13:15 Cloudy 66 19 46 8 49 49 S 9 15 30.38 1029 10 16 0.00 0.00
1:35 pm 13:35 Mostly Cloudy 66 19 46 8 49 49 SE 16 26 30.37 1029 10 16 0.00 0.00
1:55 pm 13:55 Mostly Cloudy 68 20 46 8 46 46 S 10 17 30.36 1028 10 16 0.00 0.00
2:15 pm 14:15 Mostly Cloudy 68 20 45 7 43 43 S 12 19 30.34 1027 10 16 0.00 0.00
2:35 pm 14:35 Mostly Cloudy 70 21 45 7 40 40 S 12 19 30.33 1027 10 16 0.00 0.00
2:55 pm 14:55 Mostly Cloudy 68 20 45 7 43 43 SSE 14 22 30.31 1026 10 16 0.00 0.00
3:15 pm 15:15 Partly Cloudy 70 21 46 8 43 43 S 10 17 30.30 1026 10 16 0.00 0.00
3:35 pm 15:35 Mostly Sunny 70 21 45 7 40 40 SSE 8 13 30.29 1026 10 16 0.00 0.00
3:55 pm 15:55 Mostly Sunny 68 20 45 7 43 43 SSE 16 26 30.29 1026 10 16 0.00 0.00
4:15 pm 16:15 Partly Cloudy 70 21 45 7 40 40 S 10 17 30.28 1025 10 16 0.00 0.00
4:35 pm 16:35 Mostly Cloudy 70 21 45 7 40 40 SSE 14 22 30.28 1025 10 16 0.00 0.00
4:55 pm 16:55 Partly Cloudy 70 21 43 6 38 38 S 8 13 30.27 1025 10 16 0.00 0.00
5:15 pm 17:15 Partly Cloudy 68 20 45 7 43 43 SE 13 20 30.27 1025 10 16 0.00 0.00
5:35 pm 17:35 Mostly Sunny 68 20 45 7 43 43 SE 7 11 30.27 1025 10 16 0.00 0.00
5:55 pm 17:55 Sunny 68 20 45 7 43 43 SSE 10 17 30.26 1025 10 16 0.00 0.00
6:15 pm 18:15 Sunny 66 19 45 7 46 46 SSE 8 13 30.27 1025 10 16 0.00 0.00
6:35 pm 18:35 Clear 66 19 45 7 46 46 SE 6 9 30.27 1025 10 16 0.00 0.00
6:55 pm 18:55 Partly Cloudy 64 18 45 7 49 49 SE 5 7 30.29 1026 10 16 0.00 0.00
7:15 pm 19:15 Cloudy 63 17 45 7 52 52 ESE 3 6 30.29 1026 10 16 0.00 0.00
7:35 pm 19:35 Cloudy 61 16 45 7 55 55 Calm 30.29 1026 10 16 0.00 0.00
7:55 pm 19:55 Cloudy 61 16 46 8 59 59 Calm 30.29 1026 10 16 0.00 0.00
8:15 pm 20:15 Cloudy 61 16 46 8 59 59 SE 3 6 30.29 1026 10 16 0.00 0.00
8:35 pm 20:35 Cloudy 59 15 46 8 63 63 ESE 5 7 30.30 1026 10 16 0.00 0.00
8:55 pm 20:55 Cloudy 55 13 46 8 72 72 ESE 5 7 30.30 1026 10 16 0.00 0.00
9:15 pm 21:15 Cloudy 55 13 46 8 72 72 SE 3 6 30.30 1026 10 16 0.00 0.00
9:35 pm 21:35 Cloudy 55 13 46 8 72 72 ESE 3 6 30.29 1026 10 16 0.00 0.00
9:55 pm 21:55 Cloudy 57 14 46 8 67 67 ESE 5 7 30.29 1026 10 16 0.00 0.00
10:15 pm 22:15 Mostly Cloudy 57 14 46 8 67 67 ESE 5 7 30.29 1026 10 16 0.00 0.00
10:35 pm 22:35 Cloudy 57 14 46 8 67 67 ESE 5 7 30.29 1026 10 16 0.00 0.00
10:55 pm 22:55 Cloudy 57 14 46 8 67 67 ESE 5 7 30.29 1026 10 16 0.00 0.00
11:15 pm 23:15 Cloudy 55 13 46 8 72 72 Calm 30.29 1026 10 16 0.00 0.00
11:35 pm 23:35 Cloudy 55 13 46 8 72 72 ESE 5 7 30.28 1025 10 16 0.00 0.00
11:55 pm 23:55 Cloudy 57 14 46 8 67 67 ESE 5 7 30.27 1025 10 16 0.00 0.00

Powered by AerisWeather